Orbital Elements at Epoch 2459200.5 (2020-Dec-17.0) TDB
Reference: JPL 25 (heliocentric ecliptic J2000)
Element | Value | Uncertainty (1-sigma) | Units |
e | .06926199142711233 | 4.0956e-08 | |
a | 2.31852131575017 | 1.0867e-08 | au |
q | 2.157935912255104 | 9.5915e-08 | au |
i | 8.128247486903275 | 4.3953e-06 | deg |
node | 98.82055572009993 | 2.9453e-05 | deg |
peri | 133.9050042262392 | 4.2858e-05 | deg |
M | 300.3779816498775 | 3.3511e-05 | deg |
tp | 2459414.059669211223 (2021-Jul-18.55966921) | 0.00012074 | TDB |
period | 1289.481353424898 3.53 | 9.0661e-06 2.482e-08 | d yr |
n | .2791820130192888 | 1.9629e-09 | deg/d |
Q | 2.479106719245235 | 1.162e-08 | au |
|
| | Orbit Determination Parameters
Additional Information
|